• Join FlightAware (Why Join?)
  • Login
  • US Flag 
11:34PM EDT


 

Airport Tracker/Info


-or-


 

Live Flight TrackerFlight Track Log ✈ EJA583 ✈ 13-Nov-2013 ✈ KRIC - KTEB

Flight Track Log - Related Links

Times and Time Zones

All times are in EST time to prevent confusion due to time zone crossing. See the EJA583 flight status page for this flight to view local times or setup timezone preferences in your user account.

Time Position Orientation Groundspeed Altitude Reporting Facility
EST Latitude Longitude Course Direction KTS MPH feet Rate Location/Type
04:17PM 37.5925 -77.2483 47° Northeast 239 275 6,500  Level Washington Center
04:18PM 37.6453 -77.1917 40° Northeast 245 282 8,200 1,260 Climbing Washington Center
04:19PM 37.6919 -77.1322 45° Northeast 251 289 9,000 480 Climbing Washington Center
04:20PM 37.7450 -77.0756 40° Northeast 256 295 9,200 1,440 Climbing Washington Center
04:21PM 37.8019 -77.0111 42° Northeast 262 302 11,900 2,820 Climbing Washington Center
04:22PM 37.8653 -76.9358 43° Northeast 283 326 14,800 2,460 Climbing Washington Center
04:23PM 37.9350 -76.8556 42° Northeast 310 357 16,900 1,080 Climbing Washington Center
04:24PM 38.0069 -76.7697 43° Northeast 329 379 17,000  Climbing Washington Center
04:25PM 38.0764 -76.6892 42° Northeast 342 394 17,000  Level Washington Center
04:26PM 38.1419 -76.6003 47° Northeast 342 394 17,000  Level Washington Center
04:27PM 38.2072 -76.5114 47° Northeast 337 388 17,000  Level Washington Center
04:28PM 38.2744 -76.4247 45° Northeast 337 388 17,000  Level Washington Center
04:29PM 38.3542 -76.3753 26° Northeast 331 381 17,000  Level Washington Center
04:30PM 38.4417 -76.3606 North 311 358 17,000  Level Washington Center
04:31PM 38.5358 -76.3375 11° North 311 358 17,100  Climbing Washington Center
04:32PM 38.6192 -76.3356 North 317 365 17,000 -60 Descending Washington Center
04:33PM 38.7089 -76.3206 North 317 365 17,000  Level Washington Center
04:34PM 38.7967 -76.3056 North 317 365 17,000  Level Washington Center
04:35PM 38.8842 -76.2903 North 317 365 17,000  Level Washington Center
04:36PM 38.9739 -76.2725 North 317 365 17,100  Climbing Washington Center
04:37PM 39.0617 -76.2572 North 317 365 17,000 -60 Descending Washington Center
04:38PM 39.1492 -76.2286 14° North 312 359 17,000 -60 Level Washington Center
04:39PM 39.2269 -76.1408 41° Northeast 324 373 16,900 -60 Descending Washington Center
04:40PM 39.3000 -76.0636 39° Northeast 329 379 16,900  Level Washington Center
04:41PM 39.3753 -75.9942 35° Northeast 334 384 16,900  Level Washington Center
04:42PM 39.4528 -75.9222 36° Northeast 339 390 16,900 -660 Level Washington Center
04:43PM 39.5258 -75.8553 35° Northeast 334 384 15,600 -1,440 Descending Washington Center
04:44PM 39.5989 -75.7828 37° Northeast 334 384 14,100 -900 Descending Washington Center
04:46PM 39.7500 -75.6500 34° Northeast 321 369 13,000 -420 Descending Philadelphia TRACON
04:47PM 39.8167 -75.5833 38° Northeast 323 372 13,000  Level Philadelphia TRACON
04:48PM 39.8833 -75.5167 37° Northeast 325 374 13,000  Level Philadelphia TRACON
04:49PM 39.9667 -75.4500 32° Northeast 324 373 13,000  Level Philadelphia TRACON
04:50PM 40.0333 -75.3667 44° Northeast 327 376 13,000  Level Philadelphia TRACON
04:51PM 40.1167 -75.3167 25° Northeast 328 377 13,000 -300 Level Philadelphia TRACON
04:52PM 40.1833 -75.2333 44° Northeast 322 371 12,500 -1,140 Descending Philadelphia TRACON
04:54PM 40.3167 -75.1167 34° Northeast 264 304 9,500 -1,380 Descending New York TRACON
04:55PM 40.3667 -75.0500 45° Northeast 265 305 8,100 -1,500 Descending New York TRACON
04:56PM 40.4167 -74.9833 45° Northeast 252 290 6,600 -1,380 Descending New York TRACON
04:57PM 40.4500 -74.9000 62° Northeast 258 297 5,400 -1,200 Descending New York TRACON
04:58PM 40.5000 -74.8000 57° Northeast 265 305 4,200 -1,080 Descending New York TRACON
04:59PM 40.5333 -74.7167 62° Northeast 265 305 3,200 -660 Descending New York TRACON
05:00PM 40.5500 -74.6500 72° East 252 290 3,000 -180 Descending New York TRACON
05:01PM 40.5833 -74.5667 62° Northeast 242 278 2,900 -540 Descending New York TRACON
05:02PM 40.6167 -74.5000 57° Northeast 205 236 2,000 -480 Descending New York TRACON
05:03PM 40.6500 -74.4333 57° Northeast 200 230 2,000  Level New York TRACON
05:04PM 40.6667 -74.3667 72° East 207 238 2,000  Level New York TRACON
05:05PM 40.7000 -74.3000 57° Northeast 198 228 2,000 -180 Level New York TRACON
05:06PM 40.7333 -74.2500 49° Northeast 188 216 1,700 -300 Descending New York TRACON
05:07PM 40.7500 -74.2000 66° East 175 201 1,500 -120 Descending New York TRACON
05:08PM 40.7833 -74.1500 49° Northeast 176 203 1,500 -300 Level New York TRACON
05:09PM 40.8167 -74.1167 37° Northeast 133 153 1,000 -540 Descending New York TRACON
05:11PM 40.8500 -74.0500 57° Northeast  Level FlightAware Approximate
05:18PM 40.8501 -74.0608 57° Northeast  Level Estimated
05:19PM 40.8501 -74.0608 57° Northeast  Level Estimated